TimePDT,TemperatureF,Dew PointF,Humidity,Sea Level PressureIn,VisibilityMPH,Wind Direction,Wind SpeedMPH,Gust SpeedMPH,PrecipitationIn,Events,Conditions,WindDirDegrees,DateUTC
12:56 AM,60.1,42.1,51,29.94,10.0,Calm,Calm,-,N/A,,Clear,0,2013-09-10 07:56:00
1:56 AM,54.0,39.0,57,29.95,10.0,SSE,4.6,-,N/A,,Clear,160,2013-09-10 08:56:00
2:56 AM,52.0,39.0,61,29.95,10.0,North,-9999.0,-,N/A,,Clear,0,2013-09-10 09:56:00
3:56 AM,48.9,37.9,66,29.95,10.0,SSE,4.6,-,N/A,,Clear,160,2013-09-10 10:56:00
4:56 AM,50.0,39.0,66,29.95,10.0,SSE,4.6,-,N/A,,Clear,150,2013-09-10 11:56:00
5:56 AM,48.0,37.9,68,29.97,10.0,SSE,3.5,-,N/A,,Clear,160,2013-09-10 12:56:00
6:56 AM,45.0,36.0,71,29.99,10.0,Calm,Calm,-,N/A,,Clear,0,2013-09-10 13:56:00
7:56 AM,55.9,39.9,55,30.00,10.0,SE,4.6,-,N/A,,Clear,140,2013-09-10 14:56:00
8:56 AM,63.0,42.1,46,30.00,10.0,SE,3.5,-,N/A,,Clear,130,2013-09-10 15:56:00
9:56 AM,69.1,42.1,38,30.00,10.0,Calm,Calm,-,N/A,,Clear,0,2013-09-10 16:56:00
10:56 AM,75.9,41.0,29,29.97,10.0,Variable,4.6,-,N/A,,Clear,0,2013-09-10 17:56:00
11:56 AM,79.0,39.9,25,29.96,10.0,Variable,4.6,-,N/A,,Clear,0,2013-09-10 18:56:00
12:56 PM,82.0,41.0,23,29.93,10.0,NNW,10.4,-,N/A,,Clear,330,2013-09-10 19:56:00
1:56 PM,84.9,39.0,20,29.92,10.0,NNW,10.4,-,N/A,,Clear,340,2013-09-10 20:56:00
2:56 PM,84.9,44.1,24,29.91,10.0,North,11.5,-,N/A,,Clear,350,2013-09-10 21:56:00
3:56 PM,86.0,43.0,22,29.89,10.0,NNW,16.1,-,N/A,,Clear,330,2013-09-10 22:56:00
4:56 PM,86.0,39.9,20,29.88,10.0,North,17.3,-,N/A,,Clear,350,2013-09-10 23:56:00
5:56 PM,84.9,39.0,20,29.88,10.0,North,13.8,18.4,N/A,,Clear,350,2013-09-11 00:56:00
6:56 PM,81.0,44.1,27,29.90,10.0,NNW,9.2,-,N/A,,Clear,340,2013-09-11 01:56:00
7:56 PM,75.0,44.1,33,29.90,10.0,NW,6.9,-,N/A,,Clear,320,2013-09-11 02:56:00
8:56 PM,72.0,44.1,37,29.92,10.0,WNW,6.9,-,N/A,,Clear,300,2013-09-11 03:56:00
9:56 PM,70.0,44.1,39,29.93,10.0,WNW,9.2,-,N/A,,Clear,300,2013-09-11 04:56:00
10:56 PM,68.0,44.1,42,29.94,10.0,WNW,6.9,-,N/A,,Clear,300,2013-09-11 05:56:00
11:56 PM,66.0,43.0,43,29.95,10.0,WNW,3.5,-,N/A,,Clear,290,2013-09-11 06:56:00